• In Hungary
  • List of Countries
  • For 7 days
  • Water Temperature
  • Satellite Maps
  • Weather Map
  • News
  • Weather Widgets
  • user-avatar
    Login

    Hourly Weather Madras

    Today, 22 August, Tuesday

    Time Temperature Precipitation Wind Pressure Humidity
    00:00 +32°C° 1 mm 5 mps 752 mmHg 74%
    01:00 +32°C° 1 mm 5 mps 751 mmHg 73%
    02:00 +30°C° 1 mm 5 mps 751 mmHg 73%
    03:00 +30°C° 1.3 mm 5 mps 751 mmHg 72%
    04:00 +30°C° 1.3 mm 5 mps 751 mmHg 71%
    05:00 +30°C° 1.3 mm 4 mps 751 mmHg 70%
    06:00 +32°C° 0.4 mm 4 mps 752 mmHg 66%
    07:00 +33°C° 0.4 mm 4 mps 752 mmHg 62%
    08:00 +33°C° 0.4 mm 3 mps 753 mmHg 58%
    09:00 +35°C° 0 mm 3 mps 753 mmHg 53%
    10:00 +36°C° 0 mm 2 mps 753 mmHg 49%
    11:00 +37°C° 0 mm 2 mps 753 mmHg 44%
    12:00 +37°C° 0 mm 2 mps 752 mmHg 44%
    13:00 +37°C° 0 mm 3 mps 752 mmHg 44%
    14:00 +37°C° 0 mm 3 mps 751 mmHg 43%
    15:00 +36°C° 0 mm 4 mps 751 mmHg 49%
    16:00 +35°C° 0 mm 4 mps 751 mmHg 54%
    17:00 +35°C° 0 mm 5 mps 751 mmHg 59%
    18:00 +34°C° 0 mm 5 mps 751 mmHg 62%
    19:00 +33°C° 0 mm 5 mps 752 mmHg 65%
    20:00 +32°C° 0 mm 5 mps 752 mmHg 69%
    21:00 +32°C° 0.3 mm 5 mps 752 mmHg 69%
    22:00 +32°C° 0.3 mm 5 mps 753 mmHg 70%
    23:00 +32°C° 0.3 mm 6 mps 753 mmHg 71%

    Tomorrow, 23 August, Wednesday

    Time Temperature Precipitation Wind Pressure Humidity
    00:00 +30°C° 0.8 mm 6 mps 753 mmHg 72%
    01:00 +30°C° 0.8 mm 6 mps 752 mmHg 73%
    02:00 +30°C° 0.8 mm 6 mps 752 mmHg 74%
    03:00 +30°C° 0.8 mm 5 mps 752 mmHg 71%
    04:00 +30°C° 0.8 mm 5 mps 752 mmHg 69%
    05:00 +30°C° 0.8 mm 4 mps 752 mmHg 67%
    06:00 +32°C° 0 mm 4 mps 753 mmHg 63%
    07:00 +33°C° 0 mm 4 mps 753 mmHg 59%
    08:00 +34°C° 0 mm 4 mps 754 mmHg 55%
    09:00 +35°C° 0 mm 3 mps 754 mmHg 50%
    10:00 +36°C° 0 mm 3 mps 754 mmHg 46%
    11:00 +38°C° 0 mm 2 mps 754 mmHg 42%
    12:00 +38°C° 0 mm 3 mps 753 mmHg 41%
    13:00 +39°C° 0 mm 3 mps 752 mmHg 39%
    14:00 +40°C° 0 mm 4 mps 752 mmHg 37%
    15:00 +38°C° 0 mm 4 mps 751 mmHg 44%
    16:00 +36°C° 0 mm 4 mps 751 mmHg 50%
    17:00 +35°C° 0 mm 5 mps 751 mmHg 56%
    18:00 +34°C° 0 mm 5 mps 752 mmHg 60%
    19:00 +34°C° 0 mm 5 mps 752 mmHg 63%
    20:00 +33°C° 0 mm 5 mps 753 mmHg 66%
    21:00 +33°C° 0.1 mm 5 mps 753 mmHg 67%
    22:00 +32°C° 0.1 mm 5 mps 753 mmHg 68%
    23:00 +32°C° 0.1 mm 5 mps 753 mmHg 69%

    Day after tomorrow, 24 August, Thursday

    Time Temperature Precipitation Wind Pressure Humidity
    00:00 +32°C° 0.6 mm 5 mps 753 mmHg 69%
    01:00 +32°C° 0.6 mm 5 mps 752 mmHg 69%
    02:00 +30°C° 0.6 mm 5 mps 752 mmHg 69%
    03:00 +30°C° 1.4 mm 5 mps 752 mmHg 72%
    04:00 +29°C° 1.4 mm 5 mps 752 mmHg 74%
    05:00 +29°C° 1.4 mm 6 mps 752 mmHg 76%
    06:00 +30°C° 0.3 mm 5 mps 753 mmHg 72%
    07:00 +32°C° 0.3 mm 5 mps 753 mmHg 68%
    08:00 +33°C° 0.3 mm 4 mps 754 mmHg 64%
    09:00 +34°C° 0 mm 4 mps 754 mmHg 60%
    10:00 +35°C° 0 mm 4 mps 754 mmHg 56%
    11:00 +36°C° 0 mm 4 mps 754 mmHg 52%
    12:00 +37°C° 0.1 mm 4 mps 753 mmHg 49%
    13:00 +37°C° 0.1 mm 3 mps 752 mmHg 47%
    14:00 +38°C° 0.1 mm 3 mps 751 mmHg 44%
    15:00 +37°C° 0 mm 3 mps 751 mmHg 46%
    16:00 +37°C° 0 mm 3 mps 751 mmHg 47%
    17:00 +37°C° 0 mm 3 mps 751 mmHg 49%
    18:00 +36°C° 0 mm 4 mps 751 mmHg 52%
    19:00 +35°C° 0 mm 4 mps 752 mmHg 56%
    20:00 +34°C° 0 mm 5 mps 752 mmHg 59%
    21:00 +34°C° 0.3 mm 5 mps 752 mmHg 61%
    22:00 +33°C° 0.3 mm 5 mps 752 mmHg 63%
    23:00 +33°C° 0.3 mm 5 mps 752 mmHg 65%

    25 August, Friday

    Time Temperature Precipitation Wind Pressure Humidity
    00:00 +33°C° 0.8 mm 5 mps 752 mmHg 65%
    01:00 +32°C° 0.8 mm 5 mps 751 mmHg 65%
    02:00 +32°C° 0.8 mm 5 mps 751 mmHg 66%
    03:00 +32°C° 0.4 mm 5 mps 751 mmHg 66%
    04:00 +30°C° 0.4 mm 5 mps 751 mmHg 67%
    05:00 +30°C° 0.4 mm 5 mps 751 mmHg 67%
    06:00 +32°C° 0.1 mm 5 mps 752 mmHg 64%
    07:00 +33°C° 0.1 mm 4 mps 752 mmHg 61%
    08:00 +34°C° 0.1 mm 4 mps 753 mmHg 58%
    09:00 +35°C° 0 mm 4 mps 753 mmHg 54%
    10:00 +36°C° 0 mm 4 mps 752 mmHg 49%
    11:00 +38°C° 0 mm 3 mps 752 mmHg 45%
    12:00 +38°C° 0 mm 4 mps 751 mmHg 43%
    13:00 +40°C° 0 mm 4 mps 750 mmHg 41%
    14:00 +40°C° 0 mm 4 mps 749 mmHg 39%
    15:00 +40°C° 0 mm 4 mps 749 mmHg 42%
    16:00 +39°C° 0 mm 5 mps 749 mmHg 46%
    17:00 +37°C° 0 mm 5 mps 749 mmHg 49%
    18:00 +36°C° 0 mm 5 mps 750 mmHg 53%
    19:00 +35°C° 0 mm 6 mps 750 mmHg 58%
    20:00 +34°C° 0 mm 7 mps 751 mmHg 63%
    21:00 +33°C° 0.3 mm 6 mps 751 mmHg 65%
    22:00 +33°C° 0.3 mm 6 mps 751 mmHg 67%
    23:00 +33°C° 0.3 mm 6 mps 751 mmHg 69%

    26 August, Saturday

    Time Temperature Precipitation Wind Pressure Humidity
    00:00 +32°C° 1.3 mm 6 mps 750 mmHg 70%
    01:00 +32°C° 1.3 mm 7 mps 750 mmHg 71%
    02:00 +32°C° 1.3 mm 7 mps 749 mmHg 72%
    03:00 +30°C° 0.7 mm 6 mps 750 mmHg 71%
    04:00 +30°C° 0.7 mm 5 mps 750 mmHg 70%
    05:00 +30°C° 0.7 mm 5 mps 750 mmHg 69%
    06:00 +32°C° 0.1 mm 4 mps 750 mmHg 65%
    07:00 +33°C° 0.1 mm 4 mps 751 mmHg 60%
    08:00 +34°C° 0.1 mm 4 mps 751 mmHg 56%
    09:00 +35°C° 0 mm 4 mps 751 mmHg 52%
    10:00 +37°C° 0 mm 3 mps 751 mmHg 47%
    11:00 +38°C° 0 mm 3 mps 751 mmHg 43%
    12:00 +39°C° 0 mm 3 mps 750 mmHg 41%
    13:00 +40°C° 0 mm 4 mps 749 mmHg 40%
    14:00 +40°C° 0 mm 4 mps 748 mmHg 39%
    15:00 +39°C° 0 mm 5 mps 748 mmHg 44%
    16:00 +37°C° 0 mm 5 mps 748 mmHg 50%
    17:00 +36°C° 0 mm 5 mps 748 mmHg 55%
    18:00 +35°C° 0 mm 5 mps 749 mmHg 58%
    19:00 +34°C° 0 mm 5 mps 750 mmHg 61%
    20:00 +34°C° 0 mm 5 mps 750 mmHg 64%
    21:00 +33°C° 0.4 mm 6 mps 750 mmHg 65%
    22:00 +33°C° 0.4 mm 6 mps 750 mmHg 67%
    23:00 +33°C° 0.4 mm 7 mps 750 mmHg 68%

    27 August, Sunday

    Time Temperature Precipitation Wind Pressure Humidity
    00:00 +33°C° 0.5 mm 6 mps 750 mmHg 66%
    01:00 +33°C° 0.5 mm 6 mps 749 mmHg 64%
    02:00 +33°C° 0.5 mm 6 mps 749 mmHg 61%
    03:00 +32°C° 0.2 mm 5 mps 749 mmHg 62%
    04:00 +32°C° 0.2 mm 5 mps 749 mmHg 62%
    05:00 +32°C° 0.2 mm 5 mps 750 mmHg 63%
    06:00 +32°C° 0 mm 5 mps 751 mmHg 61%
    07:00 +33°C° 0 mm 5 mps 751 mmHg 59%
    08:00 +33°C° 0 mm 5 mps 752 mmHg 58%
    09:00 +34°C° 0 mm 5 mps 752 mmHg 54%
    10:00 +36°C° 0 mm 5 mps 751 mmHg 49%
    11:00 +37°C° 0 mm 4 mps 751 mmHg 45%
    12:00 +38°C° 0 mm 4 mps 750 mmHg 43%
    13:00 +40°C° 0 mm 4 mps 749 mmHg 41%
    14:00 +39°C° 0 mm 3 mps 749 mmHg 39%
    15:00 +40°C° 0 mm 4 mps 749 mmHg 41%
    16:00 +38°C° 0 mm 4 mps 749 mmHg 44%
    17:00 +37°C° 0 mm 4 mps 749 mmHg 47%
    18:00 +36°C° 0.1 mm 5 mps 749 mmHg 50%
    19:00 +35°C° 0.1 mm 5 mps 750 mmHg 52%
    20:00 +34°C° 0.1 mm 5 mps 750 mmHg 55%
    21:00 +34°C° 0.3 mm 5 mps 750 mmHg 56%
    22:00 +34°C° 0.3 mm 6 mps 750 mmHg 57%
    23:00 +33°C° 0.3 mm 6 mps 750 mmHg 57%
    Show more